Time,TemperatureF,DewpointF,PressureIn,WindDirection,WindDirectionDegrees,WindSpeedMPH,WindSpeedGustMPH,Humidity,HourlyPrecipIn,Conditions,Clouds,dailyrainin,SoftwareType,DateUTC
2013-04-09 00:02:00,16.0,9.0,-100.00,NW,305,17.0,23.0,71,0.00,,,0.00,,2013-04-09 05:02:00,
2013-04-09 00:12:00,16.0,9.0,-100.00,WNW,300,20.0,22.0,70,0.00,,,0.00,,2013-04-09 05:12:00,
2013-04-09 00:22:00,16.0,9.0,-100.00,NW,305,18.0,22.0,70,0.00,,,0.00,,2013-04-09 05:22:00,
2013-04-09 00:32:00,16.0,7.0,-100.00,NW,305,22.0,25.0,69,0.00,,,0.00,,2013-04-09 05:32:00,
2013-04-09 00:42:00,16.0,7.0,-100.00,NW,305,20.0,26.0,69,0.00,,,0.00,,2013-04-09 05:42:00,
2013-04-09 00:52:00,15.0,7.0,-100.00,WNW,300,15.0,25.0,68,0.00,,,0.00,,2013-04-09 05:52:00,
2013-04-09 01:02:00,15.0,7.0,-100.00,WNW,295,18.0,22.0,68,0.00,,,0.00,,2013-04-09 06:02:00,
2013-04-09 01:12:00,15.0,7.0,-100.00,WNW,295,17.0,21.0,69,0.00,,,0.00,,2013-04-09 06:12:00,
2013-04-09 01:22:00,15.0,7.0,-100.00,WNW,300,21.0,26.0,68,0.00,,,0.00,,2013-04-09 06:22:00,
2013-04-09 01:32:00,15.0,7.0,-100.00,WNW,300,21.0,26.0,68,0.00,,,0.00,,2013-04-09 06:32:00,
2013-04-09 01:42:00,14.0,5.0,-100.00,WNW,300,21.0,24.0,68,0.00,,,0.00,,2013-04-09 06:42:00,
2013-04-09 01:52:00,14.0,5.0,-100.00,WNW,300,21.0,24.0,69,0.00,,,0.00,,2013-04-09 06:52:00,
2013-04-09 02:02:00,14.0,5.0,-100.00,WNW,295,18.0,24.0,69,0.00,,,0.00,,2013-04-09 07:02:00,
2013-04-09 02:12:00,14.0,5.0,-100.00,WNW,300,21.0,24.0,69,0.00,,,0.00,,2013-04-09 07:12:00,
2013-04-09 02:22:00,14.0,5.0,-100.00,NW,305,23.0,26.0,70,0.00,,,0.00,,2013-04-09 07:22:00,
2013-04-09 02:32:00,13.0,5.0,-100.00,NW,315,22.0,27.0,70,0.00,,,0.00,,2013-04-09 07:32:00,
2013-04-09 02:42:00,13.0,5.0,-100.00,NW,315,21.0,26.0,70,0.00,,,0.00,,2013-04-09 07:42:00,
2013-04-09 02:52:00,13.0,5.0,-100.00,NW,315,19.0,24.0,70,0.00,,,0.00,,2013-04-09 07:52:00,
2013-04-09 03:03:00,13.0,5.0,-100.00,NW,310,17.0,24.0,70,0.00,,,0.00,,2013-04-09 08:03:00,
2013-04-09 03:12:00,13.0,5.0,-100.00,NW,315,19.0,22.0,70,0.00,,,0.00,,2013-04-09 08:12:00,
2013-04-09 03:22:00,13.0,5.0,-100.00,NW,315,15.0,22.0,71,0.00,,,0.00,,2013-04-09 08:22:00,
2013-04-09 03:32:00,13.0,5.0,-100.00,NW,315,17.0,20.0,71,0.00,,,0.00,,2013-04-09 08:32:00,
2013-04-09 03:42:00,13.0,5.0,-100.00,NW,315,17.0,20.0,71,0.00,,,0.00,,2013-04-09 08:42:00,
2013-04-09 03:52:00,13.0,5.0,-100.00,NW,315,15.0,20.0,71,0.00,,,0.00,,2013-04-09 08:52:00,
2013-04-09 04:02:00,12.0,5.0,-100.00,NW,310,16.0,20.0,72,0.00,,,0.00,,2013-04-09 09:02:00,
2013-04-09 04:12:00,12.0,5.0,-100.00,NW,315,13.0,18.0,72,0.00,,,0.00,,2013-04-09 09:12:00,
2013-04-09 04:22:00,12.0,5.0,-100.00,NW,320,14.0,17.0,72,0.00,,,0.00,,2013-04-09 09:22:00,
2013-04-09 04:33:00,13.0,5.0,-100.00,NW,320,14.0,17.0,71,0.00,,,0.00,,2013-04-09 09:33:00,
2013-04-09 04:43:00,12.0,5.0,-100.00,NW,320,13.0,17.0,71,0.00,,,0.00,,2013-04-09 09:43:00,
2013-04-09 04:52:00,12.0,5.0,-100.00,NW,310,13.0,16.0,72,0.00,,,0.00,,2013-04-09 09:52:00,
2013-04-09 05:03:00,12.0,5.0,-100.00,WNW,295,14.0,17.0,72,0.00,,,0.00,,2013-04-09 10:03:00,
2013-04-09 05:13:00,11.0,5.0,-100.00,WNW,295,15.0,17.0,72,0.00,,,0.00,,2013-04-09 10:13:00,
2013-04-09 05:23:00,11.0,5.0,-100.00,WNW,295,15.0,18.0,72,0.00,,,0.00,,2013-04-09 10:23:00,
2013-04-09 05:32:00,11.0,5.0,-100.00,NW,305,12.0,16.0,73,0.00,,,0.00,,2013-04-09 10:32:00,
2013-04-09 05:42:00,11.0,3.0,-100.00,WNW,295,11.0,16.0,73,0.00,,,0.00,,2013-04-09 10:42:00,
2013-04-09 05:52:00,11.0,3.0,-100.00,NW,305,11.0,13.0,74,0.00,,,0.00,,2013-04-09 10:52:00,
2013-04-09 06:02:00,11.0,3.0,-100.00,NW,305,13.0,14.0,74,0.00,,,0.00,,2013-04-09 11:02:00,
2013-04-09 06:12:00,11.0,3.0,-100.00,WNW,290,13.0,18.0,74,0.00,,,0.00,,2013-04-09 11:12:00,
2013-04-09 06:22:00,10.0,3.0,-100.00,WNW,285,13.0,15.0,74,0.00,,,0.00,,2013-04-09 11:22:00,
2013-04-09 06:32:00,10.0,3.0,-100.00,WNW,300,12.0,16.0,73,0.00,,,0.00,,2013-04-09 11:32:00,
2013-04-09 06:42:00,10.0,3.0,-100.00,WNW,300,15.0,17.0,73,0.00,,,0.00,,2013-04-09 11:42:00,
2013-04-09 06:52:00,10.0,3.0,-100.00,NW,305,14.0,17.0,72,0.00,,,0.00,,2013-04-09 11:52:00,
2013-04-09 07:02:00,10.0,3.0,-100.00,WNW,295,13.0,17.0,72,0.00,,,0.00,,2013-04-09 12:02:00,
2013-04-09 07:12:00,10.0,3.0,-100.00,WNW,295,14.0,16.0,72,0.00,,,0.00,,2013-04-09 12:12:00,
2013-04-09 07:22:00,10.0,3.0,-100.00,WNW,300,14.0,19.0,72,0.00,,,0.00,,2013-04-09 12:22:00,
2013-04-09 07:32:00,10.0,3.0,-100.00,WNW,285,14.0,19.0,72,0.00,,,0.00,,2013-04-09 12:32:00,
2013-04-09 07:42:00,11.0,3.0,-100.00,WNW,295,16.0,19.0,73,0.00,,,0.00,,2013-04-09 12:42:00,
2013-04-09 07:52:00,11.0,3.0,-100.00,NW,310,17.0,22.0,73,0.00,,,0.00,,2013-04-09 12:52:00,
2013-04-09 08:02:00,11.0,3.0,-100.00,NW,315,17.0,21.0,72,0.00,,,0.00,,2013-04-09 13:02:00,
2013-04-09 08:12:00,11.0,3.0,-100.00,NW,320,17.0,21.0,71,0.00,,,0.00,,2013-04-09 13:12:00,
2013-04-09 08:22:00,11.0,3.0,-100.00,NW,310,19.0,23.0,70,0.00,,,0.00,,2013-04-09 13:22:00,
2013-04-09 08:32:00,12.0,3.0,-100.00,NW,315,20.0,26.0,69,0.00,,,0.00,,2013-04-09 13:32:00,
2013-04-09 08:42:00,12.0,3.0,-100.00,NW,325,23.0,26.0,69,0.00,,,0.00,,2013-04-09 13:42:00,
2013-04-09 08:52:00,12.0,3.0,-100.00,NW,325,23.0,26.0,69,0.00,,,0.00,,2013-04-09 13:52:00,
2013-04-09 09:03:00,12.0,5.0,-100.00,NW,325,22.0,28.0,70,0.00,,,0.00,,2013-04-09 14:03:00,
2013-04-09 09:12:00,12.0,5.0,-100.00,NW,315,24.0,29.0,70,0.00,,,0.00,,2013-04-09 14:12:00,
2013-04-09 09:22:00,12.0,5.0,-100.00,NW,315,24.0,32.0,71,0.00,,,0.00,,2013-04-09 14:22:00,
2013-04-09 09:32:00,12.0,5.0,-100.00,NW,320,26.0,30.0,71,0.00,,,0.00,,2013-04-09 14:32:00,
2013-04-09 09:42:00,13.0,5.0,-100.00,NW,325,24.0,29.0,71,0.00,,,0.00,,2013-04-09 14:42:00,
2013-04-09 09:52:00,13.0,5.0,-100.00,NW,325,23.0,28.0,71,0.00,,,0.00,,2013-04-09 14:52:00,
2013-04-09 10:02:00,13.0,5.0,-100.00,NW,320,26.0,29.0,71,0.00,,,0.00,,2013-04-09 15:02:00,
2013-04-09 10:12:00,13.0,5.0,-100.00,NW,320,26.0,28.0,70,0.00,,,0.00,,2013-04-09 15:12:00,
2013-04-09 10:22:00,14.0,7.0,-100.00,NW,320,24.0,26.0,70,0.00,,,0.00,,2013-04-09 15:22:00,
2013-04-09 10:33:00,14.0,7.0,-100.00,NW,325,23.0,26.0,71,0.00,,,0.00,,2013-04-09 15:33:00,
2013-04-09 10:43:00,15.0,7.0,-100.00,NW,325,22.0,26.0,70,0.00,,,0.00,,2013-04-09 15:43:00,
2013-04-09 10:53:00,15.0,9.0,-100.00,NW,325,20.0,24.0,71,0.00,,,0.00,,2013-04-09 15:53:00,
2013-04-09 11:03:00,15.0,9.0,-100.00,NNW,330,20.0,26.0,71,0.00,,,0.00,,2013-04-09 16:03:00,
2013-04-09 11:13:00,15.0,9.0,-100.00,NNW,330,20.0,26.0,71,0.00,,,0.00,,2013-04-09 16:13:00,
2013-04-09 11:23:00,16.0,9.0,-100.00,NNW,330,18.0,24.0,70,0.00,,,0.00,,2013-04-09 16:23:00,
2013-04-09 11:42:00,17.0,9.0,-100.00,NW,315,16.0,22.0,70,0.00,,,0.00,,2013-04-09 16:42:00,
2013-04-09 11:54:00,17.0,9.0,-100.00,NW,315,16.0,22.0,70,0.00,,,0.00,,2013-04-09 16:54:00,
2013-04-09 12:02:00,18.0,10.0,-100.00,NW,315,16.0,19.0,70,0.00,,,0.00,,2013-04-09 17:02:00,
2013-04-09 12:12:00,19.0,10.0,-100.00,NW,325,16.0,19.0,69,0.00,,,0.00,,2013-04-09 17:12:00,
2013-04-09 12:23:00,19.0,10.0,-100.00,NW,315,17.0,21.0,69,0.00,,,0.00,,2013-04-09 17:23:00,
2013-04-09 12:32:00,20.0,12.0,-100.00,NW,315,17.0,20.0,69,0.00,,,0.00,,2013-04-09 17:32:00,
2013-04-09 12:42:00,20.0,12.0,-100.00,NW,305,17.0,19.0,70,0.00,,,0.00,,2013-04-09 17:42:00,
2013-04-09 12:53:00,20.0,12.0,-100.00,NW,305,17.0,19.0,70,0.00,,,0.00,,2013-04-09 17:53:00,
2013-04-09 13:02:00,20.0,12.0,-100.00,NW,305,17.0,19.0,70,0.00,,,0.00,,2013-04-09 18:02:00,
2013-04-09 13:12:00,21.0,12.0,-100.00,NW,315,21.0,24.0,70,0.00,,,0.00,,2013-04-09 18:12:00,
2013-04-09 13:22:00,22.0,14.0,-100.00,NW,315,19.0,24.0,70,0.00,,,0.00,,2013-04-09 18:22:00,
2013-04-09 13:33:00,23.0,14.0,-100.00,NW,315,21.0,24.0,69,0.00,,,0.00,,2013-04-09 18:33:00,
2013-04-09 13:43:00,23.0,14.0,-100.00,NW,305,21.0,27.0,69,0.00,,,0.00,,2013-04-09 18:43:00,
2013-04-09 13:53:00,24.0,16.0,-100.00,NW,315,20.0,24.0,70,0.00,,,0.00,,2013-04-09 18:53:00,
2013-04-09 14:02:00,24.0,16.0,-100.00,WNW,300,21.0,25.0,70,0.00,,,0.00,,2013-04-09 19:02:00,
2013-04-09 14:12:00,24.0,16.0,-100.00,WNW,300,21.0,25.0,70,0.00,,,0.00,,2013-04-09 19:12:00,
2013-04-09 14:22:00,24.0,16.0,-100.00,NW,315,21.0,26.0,69,0.00,,,0.00,,2013-04-09 19:22:00,
2013-04-09 14:32:00,24.0,16.0,-100.00,NW,305,21.0,26.0,69,0.00,,,0.00,,2013-04-09 19:32:00,
2013-04-09 14:42:00,24.0,16.0,-100.00,NW,305,21.0,26.0,69,0.00,,,0.00,,2013-04-09 19:42:00,
2013-04-09 14:53:00,25.0,16.0,-100.00,NW,310,23.0,27.0,65,0.00,,,0.00,,2013-04-09 19:53:00,
2013-04-09 15:02:00,25.0,14.0,-100.00,NW,315,22.0,27.0,65,0.00,,,0.00,,2013-04-09 20:02:00,
2013-04-09 15:12:00,25.0,14.0,-100.00,NW,310,23.0,26.0,63,0.00,,,0.00,,2013-04-09 20:12:00,
2013-04-09 15:22:00,25.0,14.0,-100.00,NW,305,22.0,26.0,63,0.00,,,0.00,,2013-04-09 20:22:00,
2013-04-09 15:33:00,25.0,14.0,-100.00,NW,315,24.0,27.0,63,0.00,,,0.00,,2013-04-09 20:33:00,
2013-04-09 15:43:00,25.0,14.0,-100.00,NNW,330,23.0,28.0,64,0.00,,,0.00,,2013-04-09 20:43:00,
2013-04-09 15:52:00,24.0,14.0,-100.00,NNW,330,24.0,29.0,63,0.00,,,0.00,,2013-04-09 20:52:00,
2013-04-09 16:02:00,25.0,14.0,-100.00,NW,320,21.0,26.0,65,0.00,,,0.00,,2013-04-09 21:02:00,
2013-04-09 16:13:00,24.0,14.0,-100.00,NNW,330,21.0,27.0,65,0.00,,,0.00,,2013-04-09 21:13:00,
2013-04-09 16:22:00,24.0,14.0,-100.00,NNW,330,21.0,27.0,65,0.00,,,0.00,,2013-04-09 21:22:00,
2013-04-09 16:33:00,24.0,14.0,-100.00,NNW,330,21.0,27.0,65,0.00,,,0.00,,2013-04-09 21:33:00,
2013-04-09 16:42:00,24.0,14.0,-100.00,NNW,330,21.0,27.0,65,0.00,,,0.00,,2013-04-09 21:42:00,
2013-04-09 17:03:00,26.0,14.0,-100.00,WNW,300,16.0,19.0,62,0.00,,,0.00,,2013-04-09 22:03:00,
2013-04-09 17:13:00,26.0,14.0,-100.00,NW,310,17.0,22.0,59,0.00,,,0.00,,2013-04-09 22:13:00,
2013-04-09 17:23:00,25.0,14.0,-100.00,NW,315,16.0,20.0,60,0.00,,,0.00,,2013-04-09 22:23:00,
2013-04-09 17:33:00,25.0,14.0,-100.00,NW,315,16.0,20.0,60,0.00,,,0.00,,2013-04-09 22:33:00,
2013-04-09 17:42:00,26.0,14.0,-100.00,WNW,300,16.0,19.0,62,0.00,,,0.00,,2013-04-09 22:42:00,
2013-04-09 17:53:00,26.0,14.0,-100.00,WNW,300,16.0,19.0,62,0.00,,,0.00,,2013-04-09 22:53:00,
2013-04-09 18:33:00,26.0,16.0,-100.00,WNW,290,14.0,17.0,66,0.00,,,0.00,,2013-04-09 23:33:00,
2013-04-09 18:43:00,25.0,14.0,-100.00,NW,325,17.0,21.0,63,0.00,,,0.00,,2013-04-09 23:43:00,
2013-04-09 18:53:00,25.0,14.0,-100.00,NNW,335,17.0,20.0,63,0.00,,,0.00,,2013-04-09 23:53:00,
2013-04-09 19:03:00,25.0,14.0,-100.00,NNW,330,17.0,18.0,64,0.00,,,0.00,,2013-04-10 00:03:00,
2013-04-09 19:22:00,25.0,16.0,-100.00,NNW,330,13.0,17.0,64,0.00,,,0.00,,2013-04-10 00:22:00,
2013-04-09 19:32:00,25.0,16.0,-100.00,NW,325,14.0,16.0,66,0.00,,,0.00,,2013-04-10 00:32:00,
2013-04-09 19:42:00,25.0,16.0,-100.00,NNW,330,14.0,19.0,66,0.00,,,0.00,,2013-04-10 00:42:00,
2013-04-09 19:52:00,24.0,14.0,-100.00,NW,320,15.0,18.0,66,0.00,,,0.00,,2013-04-10 00:52:00,
2013-04-09 20:02:00,24.0,14.0,-100.00,NW,325,16.0,20.0,67,0.00,,,0.00,,2013-04-10 01:02:00,
2013-04-09 20:12:00,24.0,14.0,-100.00,NNW,330,14.0,17.0,67,0.00,,,0.00,,2013-04-10 01:12:00,
2013-04-09 20:23:00,24.0,14.0,-100.00,NW,325,16.0,18.0,68,0.00,,,0.00,,2013-04-10 01:23:00,
2013-04-09 20:32:00,24.0,14.0,-100.00,NW,325,16.0,18.0,68,0.00,,,0.00,,2013-04-10 01:32:00,
2013-04-09 20:42:00,24.0,14.0,-100.00,NW,325,16.0,18.0,68,0.00,,,0.00,,2013-04-10 01:42:00,
2013-04-09 20:52:00,23.0,16.0,-100.00,NW,325,14.0,17.0,72,0.00,,,0.00,,2013-04-10 01:52:00,
2013-04-09 21:02:00,23.0,16.0,-100.00,NW,325,14.0,17.0,72,0.00,,,0.00,,2013-04-10 02:02:00,
2013-04-09 21:12:00,23.0,16.0,-100.00,NW,325,14.0,17.0,72,0.00,,,0.00,,2013-04-10 02:12:00,
2013-04-09 21:22:00,23.0,16.0,-100.00,NW,325,14.0,17.0,72,0.00,,,0.00,,2013-04-10 02:22:00,
2013-04-09 21:32:00,23.0,16.0,-100.00,NW,325,14.0,17.0,72,0.00,,,0.00,,2013-04-10 02:32:00,
2013-04-09 21:53:00,23.0,16.0,-100.00,NW,315,14.0,17.0,73,0.00,,,0.00,,2013-04-10 02:53:00,
2013-04-09 22:03:00,23.0,16.0,-100.00,NW,315,14.0,17.0,73,0.00,,,0.00,,2013-04-10 03:03:00,
2013-04-09 22:12:00,23.0,16.0,-100.00,NW,315,14.0,17.0,73,0.00,,,0.00,,2013-04-10 03:12:00,
2013-04-09 22:13:00,22.0,16.0,-100.00,NW,315,11.0,14.0,78,0.00,,,0.00,,2013-04-10 03:13:00,
2013-04-09 22:22:00,23.0,16.0,-100.00,NW,315,14.0,17.0,73,0.00,,,0.00,,2013-04-10 03:22:00,
2013-04-09 22:33:00,22.0,16.0,-100.00,NW,315,11.0,14.0,78,0.00,,,0.00,,2013-04-10 03:33:00,
2013-04-09 22:43:00,22.0,16.0,-100.00,NW,315,11.0,14.0,78,0.00,,,0.00,,2013-04-10 03:43:00,
2013-04-09 22:53:00,22.0,16.0,-100.00,NW,315,11.0,14.0,78,0.00,,,0.00,,2013-04-10 03:53:00,
2013-04-09 23:03:00,22.0,16.0,-100.00,NW,315,11.0,14.0,78,0.00,,,0.00,,2013-04-10 04:03:00,
2013-04-09 23:53:00,20.0,16.0,-100.00,NNW,335,11.0,12.0,81,0.00,,,0.00,,2013-04-10 04:53:00,